Previsão horária em Al-Jadida

Hoje, 15 Junho, Terça-feira

Tempo Temperatura Precipitação Vento Pressão Humidade
00:00 +19°C° 0 mm 2 m/s 762 mmHg 89%
01:00 +19°C° 0 mm 2 m/s 761 mmHg 90%
02:00 +19°C° 0 mm 1 m/s 761 mmHg 91%
03:00 +20°C° 0 mm 1 m/s 761 mmHg 91%
04:00 +20°C° 0 mm 1 m/s 761 mmHg 91%
05:00 +20°C° 0 mm 1 m/s 761 mmHg 91%
06:00 +20°C° 0 mm 2 m/s 761 mmHg 83%
07:00 +21°C° 0 mm 2 m/s 761 mmHg 76%
08:00 +24°C° 0 mm 2 m/s 761 mmHg 68%
09:00 +24°C° 0 mm 3 m/s 761 mmHg 67%
10:00 +24°C° 0 mm 3 m/s 761 mmHg 65%
11:00 +25°C° 0 mm 3 m/s 761 mmHg 63%
12:00 +25°C° 0 mm 3 m/s 761 mmHg 61%
13:00 +25°C° 0 mm 3 m/s 760 mmHg 60%
14:00 +25°C° 0 mm 3 m/s 760 mmHg 58%
15:00 +25°C° 0 mm 3 m/s 760 mmHg 60%
16:00 +24°C° 0 mm 3 m/s 760 mmHg 62%
17:00 +24°C° 0 mm 3 m/s 760 mmHg 64%
18:00 +22°C° 0 mm 3 m/s 760 mmHg 71%
19:00 +21°C° 0 mm 3 m/s 760 mmHg 77%
20:00 +20°C° 0 mm 2 m/s 761 mmHg 83%
21:00 +19°C° 0 mm 2 m/s 761 mmHg 84%
22:00 +19°C° 0 mm 2 m/s 760 mmHg 86%
23:00 +19°C° 0 mm 2 m/s 760 mmHg 88%

Amanhã, 16 Junho, Quarta-feira

Tempo Temperatura Precipitação Vento Pressão Humidade
00:00 +19°C° 0 mm 2 m/s 760 mmHg 88%
01:00 +19°C° 0 mm 2 m/s 760 mmHg 89%
02:00 +18°C° 0 mm 3 m/s 760 mmHg 90%
03:00 +19°C° 0 mm 3 m/s 760 mmHg 89%
04:00 +19°C° 0 mm 3 m/s 760 mmHg 89%
05:00 +19°C° 0 mm 3 m/s 760 mmHg 88%
06:00 +20°C° 0 mm 3 m/s 760 mmHg 80%
07:00 +21°C° 0 mm 4 m/s 760 mmHg 72%
08:00 +23°C° 0 mm 4 m/s 760 mmHg 63%
09:00 +23°C° 0 mm 5 m/s 760 mmHg 60%
10:00 +24°C° 0 mm 6 m/s 760 mmHg 56%
11:00 +26°C° 0 mm 6 m/s 760 mmHg 53%
12:00 +26°C° 0 mm 6 m/s 760 mmHg 54%
13:00 +24°C° 0 mm 7 m/s 759 mmHg 54%
14:00 +24°C° 0 mm 7 m/s 759 mmHg 55%
15:00 +24°C° 0 mm 6 m/s 759 mmHg 57%
16:00 +23°C° 0 mm 6 m/s 760 mmHg 59%
17:00 +23°C° 0 mm 5 m/s 760 mmHg 61%
18:00 +22°C° 0 mm 5 m/s 760 mmHg 67%
19:00 +21°C° 0 mm 5 m/s 760 mmHg 74%
20:00 +20°C° 0 mm 4 m/s 761 mmHg 80%
21:00 +20°C° 0 mm 4 m/s 761 mmHg 82%
22:00 +19°C° 0 mm 4 m/s 761 mmHg 85%
23:00 +19°C° 0 mm 3 m/s 761 mmHg 88%

Depois de amanhã, 17 Junho, Quinta-feira

Tempo Temperatura Precipitação Vento Pressão Humidade
00:00 +19°C° 0 mm 3 m/s 760 mmHg 86%
01:00 +20°C° 0 mm 4 m/s 760 mmHg 84%
02:00 +20°C° 0 mm 4 m/s 760 mmHg 82%
03:00 +20°C° 0 mm 4 m/s 760 mmHg 80%
04:00 +20°C° 0 mm 3 m/s 760 mmHg 78%
05:00 +20°C° 0 mm 3 m/s 760 mmHg 76%
06:00 +21°C° 0 mm 3 m/s 760 mmHg 73%
07:00 +22°C° 0 mm 3 m/s 760 mmHg 69%
08:00 +22°C° 0 mm 3 m/s 760 mmHg 66%
09:00 +23°C° 0 mm 4 m/s 760 mmHg 63%
10:00 +25°C° 0 mm 4 m/s 760 mmHg 60%
11:00 +26°C° 0 mm 5 m/s 760 mmHg 58%
12:00 +26°C° 0 mm 5 m/s 760 mmHg 58%
13:00 +25°C° 0 mm 5 m/s 760 mmHg 58%
14:00 +25°C° 0 mm 5 m/s 760 mmHg 59%
15:00 +25°C° 0 mm 5 m/s 760 mmHg 61%
16:00 +23°C° 0 mm 5 m/s 760 mmHg 64%
17:00 +23°C° 0 mm 6 m/s 759 mmHg 66%
18:00 +22°C° 0 mm 5 m/s 760 mmHg 71%
19:00 +21°C° 0 mm 4 m/s 760 mmHg 77%
20:00 +20°C° 0 mm 3 m/s 761 mmHg 82%
21:00 +20°C° 0 mm 3 m/s 760 mmHg 84%
22:00 +20°C° 0 mm 3 m/s 760 mmHg 85%
23:00 +19°C° 0 mm 3 m/s 760 mmHg 86%

18 Junho, Sexta-feira

Tempo Temperatura Precipitação Vento Pressão Humidade
00:00 +19°C° 0 mm 2 m/s 760 mmHg 87%
01:00 +19°C° 0 mm 2 m/s 759 mmHg 88%
02:00 +20°C° 0 mm 1 m/s 759 mmHg 88%
03:00 +20°C° 0.1 mm 1 m/s 759 mmHg 87%
04:00 +18°C° 0.1 mm 0 m/s 759 mmHg 86%
05:00 +18°C° 0.1 mm 0 m/s 759 mmHg 84%
06:00 +19°C° 0 mm 0 m/s 759 mmHg 77%
07:00 +22°C° 0 mm 1 m/s 759 mmHg 70%
08:00 +23°C° 0 mm 1 m/s 759 mmHg 63%
09:00 +24°C° 0.1 mm 2 m/s 759 mmHg 62%
10:00 +24°C° 0.1 mm 3 m/s 759 mmHg 62%
11:00 +23°C° 0.1 mm 5 m/s 760 mmHg 62%
12:00 +23°C° 0 mm 5 m/s 760 mmHg 63%
13:00 +23°C° 0 mm 5 m/s 759 mmHg 65%
14:00 +22°C° 0 mm 5 m/s 759 mmHg 66%
15:00 +22°C° 0 mm 5 m/s 760 mmHg 67%
16:00 +22°C° 0 mm 6 m/s 760 mmHg 67%
17:00 +22°C° 0 mm 6 m/s 760 mmHg 67%
18:00 +21°C° 0 mm 6 m/s 760 mmHg 69%
19:00 +21°C° 0 mm 5 m/s 761 mmHg 71%
20:00 +21°C° 0 mm 5 m/s 761 mmHg 73%
21:00 +20°C° 0.1 mm 5 m/s 761 mmHg 74%
22:00 +20°C° 0.1 mm 4 m/s 761 mmHg 74%
23:00 +20°C° 0.1 mm 4 m/s 761 mmHg 75%

19 Junho, Sábado

Tempo Temperatura Precipitação Vento Pressão Humidade
00:00 +19°C° 0.1 mm 4 m/s 761 mmHg 77%
01:00 +19°C° 0.1 mm 5 m/s 761 mmHg 79%
02:00 +17°C° 0.1 mm 5 m/s 761 mmHg 82%
03:00 +18°C° 0.1 mm 4 m/s 761 mmHg 81%
04:00 +18°C° 0.1 mm 4 m/s 761 mmHg 79%
05:00 +18°C° 0.1 mm 4 m/s 761 mmHg 78%
06:00 +19°C° 0 mm 4 m/s 761 mmHg 72%
07:00 +21°C° 0 mm 4 m/s 761 mmHg 65%
08:00 +22°C° 0 mm 4 m/s 762 mmHg 58%
09:00 +22°C° 0 mm 4 m/s 762 mmHg 56%
10:00 +22°C° 0 mm 4 m/s 762 mmHg 54%
11:00 +23°C° 0 mm 5 m/s 762 mmHg 52%
12:00 +23°C° 0 mm 5 m/s 762 mmHg 53%
13:00 +23°C° 0 mm 5 m/s 762 mmHg 53%
14:00 +23°C° 0 mm 5 m/s 761 mmHg 53%
15:00 +22°C° 0 mm 5 m/s 762 mmHg 55%
16:00 +22°C° 0 mm 5 m/s 762 mmHg 58%
17:00 +21°C° 0 mm 6 m/s 762 mmHg 60%
18:00 +21°C° 0 mm 5 m/s 762 mmHg 64%
19:00 +20°C° 0 mm 4 m/s 763 mmHg 67%
20:00 +19°C° 0 mm 4 m/s 763 mmHg 71%
21:00 +19°C° 0 mm 4 m/s 763 mmHg 72%
22:00 +19°C° 0 mm 4 m/s 763 mmHg 73%
23:00 +19°C° 0 mm 4 m/s 764 mmHg 74%

20 Junho, Domingo

Tempo Temperatura Precipitação Vento Pressão Humidade
00:00 +19°C° 0 mm 4 m/s 763 mmHg 74%
01:00 +18°C° 0 mm 4 m/s 763 mmHg 74%
02:00 +18°C° 0 mm 4 m/s 763 mmHg 74%
03:00 +18°C° 0 mm 4 m/s 763 mmHg 73%
04:00 +18°C° 0 mm 3 m/s 763 mmHg 73%
05:00 +18°C° 0 mm 3 m/s 763 mmHg 72%
06:00 +19°C° 0 mm 3 m/s 763 mmHg 67%
07:00 +20°C° 0 mm 3 m/s 763 mmHg 62%
08:00 +21°C° 0 mm 4 m/s 764 mmHg 56%
09:00 +22°C° 0 mm 4 m/s 764 mmHg 53%
10:00 +22°C° 0 mm 4 m/s 764 mmHg 50%
11:00 +23°C° 0 mm 5 m/s 763 mmHg 47%
12:00 +23°C° 0 mm 5 m/s 763 mmHg 47%
13:00 +23°C° 0 mm 6 m/s 763 mmHg 46%
14:00 +23°C° 0 mm 6 m/s 763 mmHg 46%
15:00 +22°C° 0 mm 6 m/s 763 mmHg 49%
16:00 +22°C° 0 mm 6 m/s 763 mmHg 52%
17:00 +21°C° 0 mm 6 m/s 763 mmHg 55%
18:00 +21°C° 0 mm 5 m/s 763 mmHg 59%
19:00 +20°C° 0 mm 5 m/s 764 mmHg 63%
20:00 +19°C° 0 mm 5 m/s 764 mmHg 67%
21:00 +19°C° 0 mm 5 m/s 764 mmHg 68%
22:00 +19°C° 0 mm 5 m/s 764 mmHg 69%
23:00 +18°C° 0 mm 4 m/s 763 mmHg 70%
Mostrar mais